Biloxi, MS

7:20 AM CDT on July 24, 2017 (GMT -0500)
Keesler Air Force Base

Weather History for KBIX - July, 2013

Change the Weather History Date:

Wednesday, July 10, 2013

  Actual Average Record
Temperature  
Mean Temperature 82 °F -  
Max Temperature 88 °F 90 °F 100 °F (1957)
Min Temperature 75 °F 74 °F 68 °F (1950)
Cooling Degree Days 16    
Growing Degree Days 32 (Base 50)    
Moisture  
Dew Point 75 °F    
Average Humidity 83    
Maximum Humidity 95    
Minimum Humidity 62    
Precipitation  
Precipitation 0.03 in - - ()
Sea Level Pressure  
Sea Level Pressure 30.06 in    
Wind  
Wind Speed 5 mph (West)    
Max Wind Speed 15 mph    
Max Gust Speed -    
Visibility 10 miles    
Events Rain , Thunderstorm    
Averages and records for this station are not official NWS values.
T = Trace of Precipitation, MM = Missing Value Source: NWS Daily Summary

Daily Weather History Graph

Daily Weather History Graph

Search for Another Location

Airport or City:

Trip Planner

Search our weather history database for the weather conditions in past years. The results will help you decide how hot, cold, wet, or windy it might be!

Date:

Astronomy

Jul. 10, 2013 Rise Set
Actual Time 6:01 AM CDT 8:00 PM CDT
Civil Twilight 5:34 AM CDT 8:27 PM CDT
Nautical Twilight 5:01 AM CDT 9:00 PM CDT
Astronomical Twilight 4:25 AM CDT 9:35 PM CDT
Moon 8:09 AM CDT (7/10) 9:25 PM CDT (7/10)
Length of Visible Light 14h 53m
Length of Day
13h 59m
Waxing Crescent, 5% of the Moon is Illuminated
Jul 10
Waxing Crescent
Jul 15
First Quarter
Jul 22
Full
Jul 29
Last Quarter
Aug 6
New

Hourly Weather History & Observations

Time (CDT) Temp. Heat Index Dew Point Humidity Pressure Visibility Wind Dir Wind Speed Gust Speed Precip Events Conditions
12:58 AM 80.2 °F 85.5 °F 75.4 °F 85% 30.10 in 10.0 mi SSW 6.9 mph - N/A   Partly Cloudy
1:58 AM 80.2 °F 85.8 °F 76.1 °F 87% 30.09 in 10.0 mi SW 5.8 mph - N/A   Scattered Clouds
2:33 AM 80.6 °F 87.1 °F 77.0 °F 89% 30.08 in 10.0 mi WSW 3.5 mph - N/A   Mostly Cloudy
2:48 AM 80.6 °F 87.1 °F 77.0 °F 89% 30.08 in 10.0 mi WSW 4.6 mph - N/A   Mostly Cloudy
2:53 AM 80.6 °F 87.1 °F 77.0 °F 89% 30.08 in 10.0 mi West 4.6 mph - N/A   Scattered Clouds
2:58 AM 80.4 °F 86.3 °F 76.1 °F 87% 30.09 in 10.0 mi West 4.6 mph - N/A   Mostly Cloudy
3:03 AM 80.6 °F 87.1 °F 77.0 °F 89% 30.08 in 10.0 mi Variable 2.3 mph - N/A   Scattered Clouds
3:58 AM 78.6 °F - 76.3 °F 92% 30.10 in 10.0 mi Calm Calm - N/A   Partly Cloudy
4:58 AM 77.2 °F - 75.4 °F 94% 30.10 in 10.0 mi Calm Calm - N/A   Clear
5:58 AM 77.0 °F - 75.6 °F 95% 30.11 in 10.0 mi Calm Calm - N/A   Clear
6:58 AM 78.6 °F - 76.3 °F 92% 30.11 in 10.0 mi Calm Calm - N/A   Clear
7:58 AM 81.9 °F 89.7 °F 76.8 °F 85% 30.12 in 10.0 mi Variable 2.3 mph - N/A   Clear
8:58 AM 83.8 °F 92.8 °F 76.3 °F 78% 30.13 in 10.0 mi West 3.5 mph - N/A   Clear
9:58 AM 86.2 °F 95.5 °F 75.4 °F 70% 30.12 in 10.0 mi Variable 4.6 mph - N/A   Clear
10:58 AM 88.0 °F 97.5 °F 74.7 °F 65% 30.12 in 10.0 mi Variable 2.3 mph - N/A   Clear
11:58 AM 88.3 °F 100.6 °F 76.8 °F 69% 30.10 in 10.0 mi SW 11.5 mph - N/A   Clear
12:58 PM 88.7 °F 100.4 °F 76.3 °F 67% 30.07 in 10.0 mi SW 11.5 mph - N/A   Scattered Clouds
1:58 PM 86.7 °F 98.3 °F 77.0 °F 73% 30.05 in 10.0 mi SW 15.0 mph - N/A   Mostly Cloudy
2:58 PM 85.3 °F 94.6 °F 75.6 °F 73% 30.04 in 10.0 mi WSW 11.5 mph - N/A   Partly Cloudy
3:58 PM 85.1 °F 91.8 °F 73.2 °F 67% 30.02 in 10.0 mi SW 9.2 mph - N/A Thunderstorm Scattered Clouds
4:05 PM 86.0 °F 91.8 °F 71.6 °F 62% 30.04 in 10.0 mi WSW 6.9 mph - N/A Thunderstorm Thunderstorm
4:28 PM 84.2 °F 89.6 °F 71.6 °F 66% 30.04 in 10.0 mi Variable 2.3 mph - N/A Thunderstorm Thunderstorm
4:45 PM 82.4 °F 89.5 °F 75.2 °F 79% 30.03 in 10.0 mi NE 4.6 mph - N/A Thunderstorm Mostly Cloudy
4:46 PM 82.4 °F 89.5 °F 75.2 °F 79% 30.03 in 10.0 mi NE 4.6 mph - N/A Thunderstorm Thunderstorm
4:58 PM 81.3 °F 87.8 °F 75.7 °F 83% 30.04 in 10.0 mi North 3.5 mph - N/A Thunderstorm Thunderstorm
5:07 PM 80.6 °F 86.2 °F 75.2 °F 84% 30.04 in 10.0 mi NNW 6.9 mph - N/A Thunderstorm Scattered Clouds
5:10 PM 78.8 °F - 75.2 °F 89% 30.04 in 10.0 mi NNW 8.1 mph - N/A Thunderstorm Thunderstorm
5:11 PM 78.8 °F - 75.2 °F 89% 30.04 in 10.0 mi NNW 6.9 mph - N/A Rain , Thunderstorm Light Thunderstorms and Rain
5:40 PM 75.2 °F - 71.6 °F 89% 30.02 in 9.0 mi NNW 4.6 mph - N/A Rain Light Rain
5:58 PM 76.3 °F - 72.3 °F 87% 30.02 in 10.0 mi Calm Calm - 0.02 in   Light Drizzle
6:18 PM 75.2 °F - 71.6 °F 89% 30.02 in 10.0 mi NNW 4.6 mph - N/A   Clear
6:58 PM 77.4 °F - 73.6 °F 88% 30.01 in 10.0 mi Calm Calm - 0.01 in   Clear
7:58 PM 77.5 °F - 74.3 °F 90% 30.00 in 10.0 mi Calm Calm - N/A   Clear
8:58 PM 78.3 °F - 74.7 °F 89% 30.00 in 10.0 mi North 1.2 mph - N/A   Scattered Clouds
9:58 PM 77.2 °F - 74.3 °F 91% 30.01 in 10.0 mi Calm Calm - N/A   Partly Cloudy
10:58 PM 77.2 °F - 74.8 °F 92% 30.00 in 10.0 mi Calm Calm - N/A   Clear
11:58 PM 80.4 °F 86.5 °F 76.6 °F 88% 29.99 in 10.0 mi SW 10.4 mph - N/A   Clear